GW6952 Weather Reports


time (UTC)temp
C
wind
direction
speed
KPH
gust
KPH
rain 1hr
cm
rain 24hr
cm
rain mn
cm
humidity
%
barometer
mb
20260505234117 16 338 4.8 12.9 0.00 0.00 0.00 53 1015.9
20260505233016 16 45 3.2 8.0 0.00 0.00 0.00 53 1015.9
20260505232017 16 0 6.4 12.9 0.00 0.00 0.00 52 1016.0
20260505231016 16 315 3.2 6.4 0.00 0.00 0.00 53 1016.0
20260505230016 16 315 1.6 6.4 0.00 0.00 0.00 52 1016.0
20260505225016 16 293 1.6 6.4 0.00 0.00 0.00 53 1016.1
20260505224016 16 0.0 1.6 0.00 0.00 0.00 53 1016.2
20260505223016 16 338 3.2 6.4 0.00 0.00 0.00 53 1016.2
20260505222016 16 315 1.6 11.3 0.00 0.00 0.00 53 1016.3
20260505221016 16 315 3.2 11.3 0.00 0.00 0.00 53 1016.4
20260505220016 15 0 3.2 8.0 0.00 0.00 0.00 53 1016.3
20260505215016 15 270 3.2 11.3 0.00 0.00 0.00 53 1016.4
20260505214016 15 293 3.2 8.0 0.00 0.00 0.00 54 1016.4
20260505213116 15 338 3.2 11.3 0.00 0.00 0.00 53 1016.5
20260505212016 15 293 3.2 11.3 0.00 0.00 0.00 53 1016.6
20260505211016 16 248 3.2 8.0 0.00 0.00 0.00 53 1016.6
20260505210016 15 270 1.6 6.4 0.00 0.00 0.00 53 1016.5
20260505205016 15 248 1.6 3.2 0.00 0.00 0.00 53 1016.6
20260505204016 15 338 4.8 12.9 0.00 0.00 0.00 54 1016.6
20260505203036 15 338 4.8 9.7 0.00 0.00 0.00 55 1016.8
20260505202016 15 45 3.2 8.0 0.00 0.00 0.00 55 1016.8
20260505201016 15 338 3.2 6.4 0.00 0.00 0.00 54 1016.9
20260505200016 15 293 1.6 6.4 0.00 0.00 0.00 54 1016.9
20260505195016 15 338 4.8 11.3 0.00 0.00 0.00 55 1017.0
20260505194016 14 338 4.8 8.0 0.00 0.00 0.00 55 1017.0
20260505193016 14 23 3.2 6.4 0.00 0.00 0.00 56 1017.0
20260505192015 14 23 3.2 8.0 0.00 0.00 0.00 56 1017.1
20260505191016 14 45 4.8 12.9 0.00 0.00 0.00 57 1017.0
20260505190015 14 0 4.8 9.7 0.00 0.00 0.00 56 1016.9
20260505185015 13 338 6.4 14.5 0.00 0.00 0.00 56 1016.9
20260505184015 14 338 6.4 14.5 0.00 0.00 0.00 55 1017.0
20260505183015 13 338 8.0 14.5 0.00 0.00 0.00 55 1016.8
20260505182016 13 293 4.8 12.9 0.00 0.00 0.00 55 1016.9
20260505181015 13 293 4.8 11.3 0.00 0.00 0.00 55 1016.7
20260505180035 13 270 1.6 6.4 0.00 0.00 0.00 55 1016.7
20260505175015 13 338 3.2 8.0 0.00 0.00 0.00 55 1016.6
20260505174015 13 293 3.2 6.4 0.00 0.00 0.00 55 1016.5
20260505173016 13 293 3.2 8.0 0.00 0.00 0.00 55 1016.3
20260505172036 13 293 1.6 4.8 0.00 0.00 0.00 55 1016.3
20260505171016 13 338 3.2 8.0 0.00 0.00 0.00 55 1016.4
20260505170016 13 315 3.2 6.4 0.00 0.00 0.00 55 1016.3
20260505165015 13 338 4.8 11.3 0.00 0.00 0.00 55 1016.3
20260505164016 13 338 3.2 8.0 0.00 0.00 0.00 55 1016.3
20260505163016 13 315 4.8 8.0 0.00 0.00 0.00 55 1016.3
20260505162015 13 270 1.6 4.8 0.00 0.00 0.00 57 1016.2
20260505161016 13 270 1.6 3.2 0.00 0.00 0.00 57 1016.1
20260505153015 12 225 1.6 3.2 0.00 0.00 0.00 57 1015.9
20260505152015 12 0.0 3.2 0.00 0.00 0.00 58 1015.8
20260505151015 12 0.0 1.6 0.00 0.00 0.00 59 1015.8
20260505125017 11 0.0 0.0 0.00 0.00 0.00 59 1015.1
20260505124017 11 0.0 0.0 0.00 0.00 0.00 59 1015.1
20260505123017 11 0.0 0.0 0.00 0.00 0.00 59 1015.3
20260505122017 11 0.0 0.0 0.00 0.00 0.00 59 1015.2
20260505121017 11 0.0 0.0 0.00 0.00 0.00 58 1015.5
20260505120017 11 0.0 1.6 0.00 0.00 0.00 58 1015.6
20260505115016 11 0.0 3.2 0.00 0.00 0.00 58 1015.4
20260505114038 11 0.0 3.2 0.00 0.00 0.00 58 1015.5
20260505113017 11 0.0 3.2 0.00 0.00 0.00 57 1015.5
20260505112016 11 0.0 1.6 0.00 0.00 0.00 57 1015.3
20260505111016 11 315 3.2 6.4 0.00 0.00 0.00 57 1015.4
20260505102016 11 315 1.6 4.8 0.00 0.00 0.00 55 1015.4
20260505101016 11 338 4.8 11.3 0.00 0.00 0.00 55 1015.4
20260505100016 11 315 3.2 11.3 0.00 0.00 0.00 55 1015.4
20260505095017 11 315 1.6 4.8 0.00 0.00 0.00 55 1015.4
20260505094016 12 315 3.2 8.0 0.00 0.00 0.00 55 1015.7
20260505093017 12 315 4.8 11.3 0.00 0.00 0.00 56 1015.7
20260505092036 12 315 3.2 6.4 0.00 0.00 0.00 56 1015.6
20260505091016 12 315 6.4 12.9 0.00 0.00 0.00 56 1015.7
20260505090016 12 315 4.8 11.3 0.00 0.00 0.00 56 1016.0
20260505085016 12 338 8.0 16.1 0.00 0.00 0.00 56 1016.0
20260505084016 12 338 8.0 17.7 0.00 0.00 0.00 56 1016.1
20260505083016 12 338 12.9 19.3 0.00 0.00 0.00 56 1016.1
20260505082016 12 315 8.0 16.1 0.00 0.00 0.00 57 1016.1
20260505081016 12 315 6.4 16.1 0.00 0.00 0.00 58 1016.0
20260505080016 12 338 9.7 17.7 0.00 0.00 0.00 59 1016.2
20260505075016 12 338 6.4 11.3 0.00 0.00 0.00 59 1016.1
20260505074016 12 338 8.0 14.5 0.00 0.00 0.00 60 1016.1
20260505073016 12 338 6.4 11.3 0.00 0.00 0.00 60 1016.0
20260505072016 12 338 6.4 12.9 0.00 0.00 0.00 60 1016.0
20260505071056 12 315 3.2 9.7 0.00 0.00 0.00 60 1015.9
20260505070617 12 293 1.6 1.6 0.00 0.00 0.00 60 1015.9
20260505070016 12 293 3.2 8.0 0.00 0.00 0.00 60 1015.9
20260505065035 12 0.0 3.2 0.00 0.00 0.00 60 1015.9
20260505064015 12 0.0 3.2 0.00 0.00 0.00 60 1015.8
20260505063015 12 315 1.6 4.8 0.00 0.00 0.00 60 1015.8
20260505062015 12 0.0 3.2 0.00 0.00 0.00 60 1015.6
20260505061016 12 315 1.6 6.4 0.00 0.00 0.00 60 1015.6
20260505060015 13 293 3.2 6.4 0.00 0.00 0.00 60 1015.8
20260505055015 13 315 3.2 11.3 0.00 0.00 0.00 59 1015.8
20260505054015 13 293 4.8 12.9 0.00 0.00 0.00 58 1016.0
20260505053016 13 293 3.2 11.3 0.00 0.00 0.00 58 1016.1
20260505052015 13 338 6.4 14.5 0.00 0.00 0.00 58 1016.2
20260505051016 13 338 12.9 19.3 0.00 0.00 0.00 57 1016.1
20260505041017 14 338 8.0 14.5 0.00 0.00 0.00 56 1015.6
20260505040017 14 338 8.0 14.5 0.00 0.00 0.00 56 1015.5
20260505035017 14 338 9.7 16.1 0.00 0.00 0.00 55 1015.2
20260505034017 14 338 4.8 8.0 0.00 0.00 0.00 54 1015.1
20260505033017 14 338 6.4 12.9 0.00 0.00 0.00 54 1015.0
20260505032017 14 338 8.0 16.1 0.00 0.00 0.00 54 1014.9
20260505031037 15 315 6.4 16.1 0.00 0.00 0.00 54 1014.9
20260505030017 15 338 9.7 16.1 0.00 0.00 0.00 53 1015.0
20260505025017 15 338 8.0 14.5 0.00 0.00 0.00 53 1015.0
20260505024017 15 338 9.7 17.7 0.00 0.00 0.00 52 1014.9
20260505023017 15 338 11.3 19.3 0.00 0.00 0.00 51 1014.9
20260505022017 15 338 8.0 16.1 0.00 0.00 0.00 50 1014.7
20260505021017 15 338 8.0 14.5 0.00 0.00 0.00 50 1014.7
20260505020017 15 338 8.0 17.7 0.00 0.00 0.00 50 1014.6
20260505015017 15 338 8.0 14.5 0.00 0.00 0.00 50 1014.6
20260505014017 16 338 8.0 17.7 0.00 0.00 0.00 50 1014.7
20260505013017 16 338 11.3 19.3 0.00 0.00 0.00 50 1014.7
20260505012017 16 338 9.7 17.7 0.00 0.00 0.00 50 1014.8
20260505011037 16 315 8.0 16.1 0.00 0.00 0.00 50 1014.9
20260505010017 16 338 11.3 17.7 0.00 0.00 0.00 49 1014.9
20260505005017 16 338 11.3 16.1 0.00 0.00 0.00 49 1015.0
20260505004016 16 338 11.3 19.3 0.00 0.00 0.00 49 1015.0
20260505003016 16 338 11.3 17.7 0.00 0.00 0.00 48 1015.0
20260505002016 17 315 9.7 17.7 0.00 0.00 0.00 48 1014.9
20260505001016 17 338 14.5 24.1 0.00 0.00 0.00 47 1014.8
20260505000017 17 338 12.9 20.9 0.00 0.00 0.00 48 1014.7
20260504235017 17 338 11.3 17.7 0.00 0.00 0.00 48 1014.7